Weather History for KAVL - June, 2012

Change the Weather History Date:

Sunday, June 17, 2012

  Actual Average Record
Temperature  
Mean Temperature 71 °F 71 °F  
Max Temperature 80 °F 82 °F 92 °F (1936)
Min Temperature 61 °F 60 °F 40 °F (1917)
Degree Days  
Heating Degree Days 0 0  
Month to date heating degree days 9 11  
Since 1 June heating degree days 9 11  
Since 1 July heating degree days 3309 4192  
Cooling Degree Days 6 6  
Month to date cooling degree days 54 84  
Year to date cooling degree days 178 142  
Since 1 June cooling degree days 54 84  
Growing Degree Days 20 (Base 50)    
Moisture  
Dew Point 58 °F    
Average Humidity 66    
Maximum Humidity 84    
Minimum Humidity 48    
Precipitation  
Precipitation T in 0.16 in 2.00 in (1987)
Month to date precipitation 0.45 2.60  
Year to date precipitation 19.09 20.85  
Snow  
Snow 0.00 in 0.00 in 0.00 in ()
Month to date snowfall 0.0 0.0  
Since 1 June snowfall 0.0 0.0  
Since 1 July snowfall T 9.9  
Snow Depth 0.00 in    
Sea Level Pressure  
Sea Level Pressure 30.11 in    
Wind  
Wind Speed 2 mph (South)    
Max Wind Speed 14 mph    
Max Gust Speed 18 mph    
Visibility 10 miles    
Events Rain    
T = Trace of Precipitation, MM = Missing Value Source: NWS Daily Summary

Daily Weather History Graph

Daily Weather History Graph

Search for Another Location

Airport or City:

Trip Planner

Search our weather history database for the weather conditions in past years. The results will help you decide how hot, cold, wet, or windy it might be!

Date:

Astronomy

Jun. 17, 2012 Rise Set
Actual Time 6:14 AM EDT 8:47 PM EDT
Civil Twilight 5:44 AM EDT 9:17 PM EDT
Nautical Twilight 5:07 AM EDT 9:54 PM EDT
Astronomical Twilight 4:26 AM EDT 10:35 PM EDT
Moon 4:41 AM EDT (6/17) 7:16 PM EDT (6/17)
Length of Visible Light 15h 32m
Length of Day
14h 32m
Waning Crescent, 4% of the Moon is Illuminated
Jun 17
Waning Crescent
Jun 19
New
Jun 26
First Quarter
Jul 3
Full
Jul 10
Last Quarter

Hourly Weather History & Observations

Time (EDT) Temp. Dew Point Humidity Pressure Visibility Wind Dir Wind Speed Gust Speed Precip Events Conditions
12:54 AM 66.0 °F 59.0 °F 78% 30.17 in 10.0 mi Calm Calm - N/A   Overcast
1:54 AM 66.0 °F 57.0 °F 73% 30.16 in 10.0 mi South 4.6 mph - N/A   Overcast
2:54 AM 66.0 °F 57.9 °F 75% 30.17 in 10.0 mi Calm Calm - N/A   Overcast
3:54 AM 66.0 °F 55.9 °F 70% 30.15 in 10.0 mi Calm Calm - N/A   Overcast
4:54 AM 63.0 °F 57.0 °F 81% 30.15 in 10.0 mi Calm Calm - N/A   Partly Cloudy
5:54 AM 62.1 °F 57.0 °F 84% 30.16 in 10.0 mi Calm Calm - N/A   Overcast
6:54 AM 62.1 °F 55.9 °F 80% 30.17 in 10.0 mi Calm Calm - N/A   Overcast
7:54 AM 64.9 °F 57.9 °F 78% 30.18 in 10.0 mi Calm Calm - N/A   Overcast
8:54 AM 66.0 °F 54.0 °F 65% 30.18 in 10.0 mi Calm Calm - N/A   Overcast
9:54 AM 68.0 °F 55.0 °F 63% 30.17 in 10.0 mi Calm Calm - 0.00 in Rain Light Rain
10:54 AM 69.1 °F 53.1 °F 57% 30.17 in 10.0 mi South 4.6 mph - 0.00 in   Mostly Cloudy
11:54 AM 71.1 °F 54.0 °F 55% 30.15 in 10.0 mi Calm Calm - N/A   Mostly Cloudy
12:54 PM 73.9 °F 55.0 °F 52% 30.14 in 10.0 mi Calm Calm - N/A   Overcast
1:54 PM 73.9 °F 55.9 °F 53% 30.12 in 10.0 mi Variable 4.6 mph - N/A   Overcast
2:54 PM 75.9 °F 57.9 °F 54% 30.09 in 10.0 mi Calm Calm - N/A   Mostly Cloudy
3:54 PM 78.1 °F 57.9 °F 50% 30.06 in 10.0 mi Variable 4.6 mph - N/A   Clear
4:54 PM 78.1 °F 57.0 °F 48% 30.04 in 10.0 mi SSW 4.6 mph - N/A   Clear
5:54 PM 75.9 °F 60.1 °F 58% 30.02 in 10.0 mi SSE 6.9 mph - N/A   Clear
6:54 PM 75.9 °F 61.0 °F 60% 30.01 in 10.0 mi SSW 10.4 mph 18.4 mph N/A   Partly Cloudy
7:54 PM 73.9 °F 61.0 °F 64% 30.02 in 10.0 mi South 8.1 mph - N/A   Mostly Cloudy
8:54 PM 72.0 °F 61.0 °F 68% 30.03 in 10.0 mi South 4.6 mph - N/A   Clear
9:54 PM 70.0 °F 61.0 °F 73% 30.05 in 10.0 mi Calm Calm - N/A   Partly Cloudy
10:54 PM 70.0 °F 61.0 °F 73% 30.05 in 10.0 mi Calm Calm - N/A   Mostly Cloudy
11:54 PM 68.0 °F 61.0 °F 78% 30.05 in 10.0 mi Calm Calm - N/A   Mostly Cloudy